Regional Weather Roundup
Issued by NWS

Home | Current Version | Previous Version | Graphics & Text | Print | Product List | Glossary On
Versions: 1 2 3 4 5 6 7 8 9 10 11 12 13 14 15 16 17 18 19 20 21 22 23 24 25 26 27 28 29 30 31 32 33 34 35 36 37 38 39 40 41 42 43 44 45 46 47 48 49 50
000
ASUS43 KFSD 221802
RWRSD

WEATHER ROUNDUP FOR SOUTH DAKOTA
NATIONAL WEATHER SERVICE SIOUX FALLS SD
1200 PM CST SUN JAN 22 2017

NOTE: "FAIR" INDICATES FEW OR NO CLOUDS BELOW 12,000 FEET WITH NO
SIGNIFICANT WEATHER AND/OR OBSTRUCTIONS TO VISIBILITY.


SDZ001>005-009-010-012>017-221900-
NORTHWEST AND NORTH CENTRAL SOUTH DAKOTA

CITY           SKY/WX    TMP DP  RH WIND       PRES   REMARKS
BUFFALO          N/A     27  21  78 NW13      29.77R WCI  16
FAITH            N/A     21  19  92 NW10      29.85R WCI  10
MOBRIDGE       CLOUDY    25  20  81 W10       29.80S WCI  15
$$

SDZ012>016-024>037-041>051-057-063-072>074-221900-
SOUTHWEST AND SOUTH CENTRAL SOUTH DAKOTA

CITY           SKY/WX    TMP DP  RH WIND       PRES   REMARKS
RAPID CTY ARPT SUNNY     39  25  57 N5        29.85S
PIERRE         SUNNY     28  22  78 W12       29.85S WCI  18
CUSTER         SUNNY     36  15  42 W12G18    29.82R
ELLSWORTH AFB  SUNNY     37  25  60 N9        29.84S
PHILIP         SUNNY     34  25  69 W6        29.87S WCI  29
PINE RIDGE     MOSUNNY   34  26  72 W12       29.89R WCI  25
SPEARFISH      FAIR      37  21  52 W9G16     29.84S
WINNER         FAIR      37  29  72 NW14      29.85S
$$

SDZ004>011-016>023-039-040-221900-
NORTHEAST SOUTH DAKOTA

CITY           SKY/WX    TMP DP  RH WIND       PRES   REMARKS
ABERDEEN       CLOUDY    29  24  82 W10       29.81S WCI  20
WATERTOWN      FOG       28  27  96 NW12      29.76S VSB 1   WCI  18
BROOKINGS      CLOUDY    29  28  96 NW14      29.76F FOG     WCI  18
SISSETON         N/A     32  31  96 N12       29.76F WCI  23
$$

SDZ017-020-022-023-036>040-048>070-221900-
SOUTHEAST SOUTH DAKOTA

CITY           SKY/WX    TMP DP  RH WIND       PRES   REMARKS
SIOUX FALLS    CLOUDY    33  32  96 NW13      29.79R WCI  24
HURON          CLOUDY    26  26 100 NW15      29.83S WCI  14
CHAMBERLAIN    SUNNY     32  28  83 NW9       29.85F WCI  24
MITCHELL       PTSUNNY   27  25  93 NW15      29.85R WCI  15
YANKTON        CLOUDY    32  27  80 NW12      29.82F WCI  23
$$

ABBREVIATIONS USED IN REMARKS
   TC - TEMPERATURE IN CELSIUS
  WCI - WIND CHILL INDEX
   HX - HEAT INDEX
  VSB - VISIBILITY




USA.gov is the U.S. government's official web portal to all federal, state and local government web resources and services.